DW6920 Weather Reports


time (UTC)temp
F
wind
direction
speed
knots
gust
knots
rain 1hr
in
rain 24hr
in
rain mn
in
humidity
%
barometer
mb
20260506211546 51 231 0.0 0.0 0.03 0.05 0.05 91 1008.4
20260506210045 51 244 0.0 0.0 0.02 0.04 0.04 91 1008.5
20260506204525 51 225 0.0 0.0 0.01 0.03 0.03 91 1008.5
20260506203024 52 193 0.0 0.0 0.02 0.03 0.03 91 1008.5
20260506201508 52 170 0.0 0.0 0.01 0.02 0.02 91 1008.7
20260506200004 52 203 0.0 0.0 0.02 0.02 0.02 91 1008.8
20260506194545 52 207 0.0 0.0 0.02 0.02 0.02 90 1008.9
20260506193045 52 172 0.0 0.0 0.01 0.01 0.01 89 1009.1
20260506191524 52 187 0.0 0.0 0.01 0.01 0.01 88 1009.1
20260506190022 53 211 0.0 0.0 0.00 0.00 0.00 88 1009.2
20260506184503 53 197 0.0 0.0 0.00 0.00 0.00 88 1009.4
20260506183003 52 254 0.0 0.0 0.00 0.00 0.00 88 1009.6
20260506181543 52 207 0.0 0.0 0.00 0.00 0.00 88 1009.7
20260506180049 52 164 0.0 9.6 0.00 0.00 0.00 88 1009.6
20260506174526 53 177 0.0 10.4 0.00 0.00 0.00 88 1009.8
20260506173020 53 181 0.0 2.6 0.00 0.00 0.00 87 1010.0
20260506171501 54 185 0.0 0.0 0.00 0.00 0.00 87 1010.3
20260506170100 54 177 0.0 0.0 0.00 0.00 0.00 87 1010.2
20260506164543 54 188 0.0 0.0 0.00 0.00 0.00 88 1010.4
20260506163048 53 189 0.0 0.0 0.00 0.00 0.00 88 1010.8
20260506161536 52 178 0.0 0.0 0.00 0.00 0.00 89 1010.9
20260506160025 52 189 0.0 0.0 0.00 0.00 0.00 89 1011.2
20260506154507 52 192 0.0 0.0 0.00 0.00 0.00 89 1011.2
20260506153009 52 161 0.0 0.0 0.00 0.00 0.00 88 1011.4
20260506151548 52 177 0.0 0.0 0.00 0.00 0.00 88 1011.6
20260506150048 53 182 0.0 0.0 0.00 0.00 0.00 87 1011.5
20260506144530 52 205 0.0 0.0 0.00 0.00 0.00 88 1011.9
20260506143030 52 189 0.0 0.0 0.00 0.00 0.00 88 1011.8
20260506141512 53 186 0.0 0.0 0.00 0.00 0.00 85 1011.8
20260506140012 55 223 0.0 0.0 0.00 0.00 0.00 85 1011.5
20260506134617 56 233 0.0 0.0 0.00 0.00 0.00 85 1011.4
20260506133054 56 227 0.0 0.0 0.00 0.00 0.00 85 1011.9
20260506131600 56 234 0.0 0.0 0.00 0.00 0.00 86 1012.2
20260506130040 56 224 0.0 0.0 0.00 0.00 0.00 87 1012.0
20260506124538 55 232 0.0 0.0 0.00 0.00 0.00 87 1012.1
20260506123044 55 238 0.0 0.0 0.00 0.00 0.00 88 1012.2
20260506121538 54 181 0.0 0.0 0.00 0.00 0.00 88 1012.2
20260506120036 54 222 0.0 0.0 0.00 0.00 0.00 88 1012.1
20260506114543 53 207 0.0 0.0 0.00 0.00 0.00 88 1012.2
20260506113037 54 235 0.0 0.0 0.00 0.00 0.00 89 1012.3
20260506111516 53 217 0.0 7.8 0.00 0.00 0.00 89 1012.3
20260506110017 53 231 0.0 0.0 0.00 0.00 0.00 89 1012.1
20260506104605 54 225 0.9 13.0 0.00 0.00 0.00 89 1012.2
20260506103105 53 210 0.0 0.0 0.00 0.00 0.00 89 1012.0
20260506101541 54 170 0.0 0.0 0.00 0.00 0.00 90 1011.7
20260506100039 54 219 0.0 0.0 0.00 0.00 0.00 89 1011.9
20260506094521 54 176 0.0 0.0 0.00 0.00 0.00 89 1012.0
20260506093020 54 229 0.0 0.0 0.00 0.00 0.00 89 1011.9
20260506091503 54 161 0.0 0.0 0.00 0.00 0.00 89 1012.2
20260506090001 54 222 0.0 0.0 0.00 0.00 0.00 89 1012.1
20260506084550 54 213 0.0 0.0 0.00 0.00 0.00 89 1012.4
20260506083108 54 252 0.0 0.0 0.00 0.00 0.00 89 1012.5
20260506081551 54 241 0.0 0.0 0.00 0.00 0.00 89 1012.5
20260506073046 54 222 0.0 0.0 0.00 0.00 0.00 89 1012.5
20260506071550 53 236 0.0 0.0 0.00 0.00 0.00 89 1012.4
20260506061507 53 230 0.0 0.0 0.00 0.00 0.00 88 1012.4
20260506044518 54 224 0.0 0.0 0.00 0.00 0.00 87 1012.8
20260506043015 53 227 0.0 0.0 0.00 0.00 0.00 87 1012.8
20260506041513 54 245 0.0 0.0 0.00 0.00 0.00 88 1013.0
20260506040016 53 239 0.0 0.0 0.00 0.00 0.00 87 1013.0
20260506034512 54 268 0.0 0.0 0.00 0.00 0.00 87 1012.9
20260506033015 53 247 0.0 0.0 0.00 0.00 0.00 87 1013.1
20260506031508 53 274 0.0 0.0 0.00 0.00 0.00 87 1013.0
20260506030007 53 263 0.0 0.0 0.00 0.00 0.00 87 1012.9
20260506024558 53 264 0.0 0.0 0.00 0.00 0.00 86 1012.7
20260506023050 53 268 0.0 0.0 0.00 0.00 0.00 86 1012.6
20260506021528 53 216 0.0 0.0 0.00 0.00 0.00 85 1012.4
20260506020026 53 236 0.0 0.0 0.00 0.00 0.00 85 1012.4
20260506014512 53 234 0.0 0.0 0.00 0.00 0.00 85 1012.2
20260506013006 53 247 0.0 0.0 0.00 0.00 0.00 84 1012.2
20260506011633 53 264 0.0 0.0 0.00 0.00 0.00 84 1012.1
20260506010048 53 249 0.0 0.0 0.00 0.00 0.00 84 1012.0
20260506004559 53 245 0.0 0.0 0.00 0.00 0.00 84 1011.7
20260506003032 53 241 0.0 0.0 0.00 0.00 0.00 84 1011.5
20260506001530 53 240 0.0 0.0 0.00 0.00 0.00 84 1011.0
20260506000046 54 232 0.0 0.0 0.00 0.00 0.00 83 1010.8
20260505234539 55 231 0.0 6.1 0.00 0.00 0.00 83 1010.8
20260505233029 54 219 0.0 5.2 0.00 0.00 0.00 83 1011.0
20260505231527 54 234 0.0 0.0 0.00 0.00 0.00 83 1010.9
20260505230048 55 234 0.0 0.0 0.00 0.00 0.00 82 1010.8
20260505224535 54 226 0.0 0.0 0.00 0.00 0.00 84 1010.6
20260505223007 54 244 0.0 0.0 0.00 0.00 0.00 83 1010.4
20260505221506 54 201 0.0 0.0 0.00 0.00 0.00 84 1010.3
20260505220049 54 244 0.0 0.0 0.00 0.00 0.00 84 1010.5
20260505214547 54 257 0.0 0.0 0.00 0.00 0.00 84 1010.6
20260505213028 53 233 0.0 0.0 0.00 0.00 0.00 85 1010.6